Aeroporto :
LOGIN :

Iscrizione | Disclaimer

   EN    FR    IT 

 










Sommario :    VFR   VFR Marginale   IFR   IFR Intensivo   IFR Molto Intensivo
Visibilità : 
Base nubi : 
>= 8 km
>= 3000ft
5 / 8 km
1000 / 3000 ft
1500m / 5 km
500 / 1000 ft
800 / 1500m
200 / 500 ft
< 800m
< 200 ft
Simboli :   Temporali  Nebbia  Neve Forte  Precipitazioni Forti  Vento > 20 kt
SIGMETs :   Varie  Temporali  Ghiacco  Turbolenza  Onda orograficha  Ceneri Vulcaniche







- Altitudine del aeroporto : 2595 ft
- Codice IATA : SLM


LESA - Salamanca Matacan

ULTIMO METAR :
  • 220800Z 00000KT 9999 FEW025 10/10 Q1024

METARs OBSOLETI :
  • 220730Z 20003KT 130V230 CAVOK 08/08 Q1024
  • 220700Z 02006KT 5000 BR NSC 09/09 Q1024
  • 220630Z 00000KT 5000 BR NSC 07/07 Q1023
  • 220600Z 01003KT CAVOK 07/07 Q1023
  • 220530Z 00000KT CAVOK 07/06 Q1023
  • 220500Z 20004KT CAVOK 08/07 Q1023

TAF TAF LESA
Valido dal 22 a 06 ore il 23 a 06 ore UTC


220500Z 2206/2306 VRB05KT CAVOK TX21/2214Z TN06/2306Z
PROB30
TEMPO 2206/2209 1200 BCFG BKN004
BECMG 2211/2213 05010KT
Nessun NOTAM noto per questo aeroporto.



MetMap, La meteo Aeronautica in un colpo d'occhio ! - Copyright ORBIFLY Dicembre 2007 - Disclaimer

ORBIFLY MET'MAP TEAM :

Programmazione e sviluppo : Alexandra Zaïnal
Concezione e sviluppo : Baudouin d'Aumeries
Co-Programmazione e sviluppo : Marc-Olivier Méhu
Supporto tecnico e logistico : Manuel Goepfert
Aiuto per la traduzione : Arnaldo La Scala

Contatto : metmap@orbifly.com




FONTI E CREDITI :

   NOAA